Regional Weather Roundup
Issued by NWS

Home | Current Version | Previous Version | Text Only | Print | Product List | Glossary Off
Versions: 1 2 3 4 5 6 7 8 9 10 11 12 13 14 15 16 17 18 19 20 21 22 23 24 25 26 27 28 29 30 31 32 33 34 35 36 37 38 39 40 41 42 43 44 45 46 47 48 49 50

000
ASUS43 KDTX 201110
RWRMI
MICHIGAN HOURLY REGIONAL WEATHER ROUNDUP
NATIONAL WEATHER SERVICE DETROIT/PONTIAC MI
700 AM EDT MON OCT 20 2014

NOTE: "FAIR" INDICATES FEW OR NO CLOUDS BELOW 12,000 FEET WITH NO
SIGNIFICANT WEATHER AND/OR OBSTRUCTION TO VISIBILITY.

MIZ047>049-052>055-059>063-066>070-074>076-081>083-201200-
SOUTHEAST LOWER MICHIGAN

CITY           SKY/WX    TMP DP  RH WIND       PRES   REMARKS
ADRIAN         CLOUDY    47  43  86 SW9       29.89F
ALMA           MOCLDY    46  43  91 S5        29.81S
ANN ARBOR      CLOUDY    47  42  83 SW8       29.87F
CARO           LGT RAIN  47  44  92 S7        29.81F
DETROIT CITY   LGT RAIN  50  43  77 SW9       29.88F
DETROIT        CLOUDY    47  43  86 S9        29.88F
FLINT          CLOUDY    50  43  77 S10       29.84F
GROSSE ILE     LGT RAIN  48  43  81 S12       29.87F
HILLSDALE      CLOUDY    47  45  95 S6        29.86F
HOWELL         CLOUDY    46  44  93 S6        29.84F

CITY           SKY/WX    TMP DP  RH WIND       PRES   REMARKS
JACKSON        CLOUDY    48  43  82 SW15      29.85F
LAMBERTVILLE   LGT RAIN  46  43  87 S6        29.90F
LANSING        PTCLDY    47  43  86 S10       29.83F
LAPEER         CLOUDY    46  43  89 SW6       29.84S
MASON          CLOUDY    47  44  90 S3        29.83F
MONROE         DRIZZLE   48  43  81 SW7       29.88F
MT. CLEMENS    CLOUDY    47  44  88 S9        29.84F
PONTIAC        CLOUDY    46  42  86 S6        29.85S
PORT HOPE        N/A     46  43  89 SW9       29.78F
PORT HURON     DRIZZLE   46  45  93 S6        29.86F
TRI CITIES     CLOUDY    50  44  80 SW9       29.81F
TROY           CLOUDY    47  44  87 S8        29.87F
SAGINAW HB     CLOUDY    48  46  93 S12       29.81S
$$
MIZ043>046-050>051-056>058-064>065-071>073-077>080-201200-
SOUTHWEST LOWER MICHIGAN

CITY           SKY/WX    TMP DP  RH WIND       PRES   REMARKS
BATTLE CREEK   MOCLDY    47  43  86 S8        29.84F
BENTON HARBOR  CLEAR     47  43  86 S6        29.82F
BIG RAPIDS     MOCLDY    46  46 100 S3        29.77S FOG
COLDWATER      CLOUDY    49  45  84 SW7       29.85F
FREMONT        FAIR      47  46  95 S3        29.77F
HOLLAND        CLEAR     54  48  80 SW10      29.80F
GRAND RAPIDS   PTCLDY    48  44  86 S8        29.81S
IONIA          PTSUNNY   46  45  94 S6        29.80F
KALAMAZOO      MOCLDY    47  43  86 S9        29.84F
LUDINGTON      FOG       44  42  95 CALM      29.77S VSB 1/2
MARSHALL       MOCLDY    47  43  87 S6        29.84F
MOUNT PLEASANT CLOUDY    48  45  90 S5        29.78F
MUSKEGON       CLEAR     49  45  86 SW6       29.78F
SOUTH HAVEN    CLEAR     48  45  90 S5        29.81F
$$
MIZ016>042-201200-
NORTHERN LOWER MICHIGAN

CITY           SKY/WX    TMP DP  RH WIND       PRES   REMARKS
ALPENA         LGT RAIN  46  43  89 S7        29.75F
BEAVER ISLAND  CLOUDY    51  47  87 NW5       29.73S
BELLAIRE       CLOUDY    50  46  87 CALM      29.74S
CADILLAC       CLOUDY    47  47  97 SW6       29.75S
CHARLEVOIX     CLOUDY    51  49  93 S3        29.76R
FRANKFORT      CLOUDY    52  46  80 W3        29.75R
GAYLORD        CLOUDY    47  44  90 S6        29.74S
GRAYLING       CLOUDY    49  49 100 CALM      29.76S
HARBOR SPRINGS CLOUDY    51  47  86 CALM      29.73S
HOUGHTON LAKE  CLOUDY    47  45  93 S5        29.77S
MANISTEE       PTCLDY    45  39  81 E3        29.76S
OSCODA         LGT RAIN  46  45  97 SW8       29.77F
PELLSTON       CLOUDY    49  46  90 CALM      29.73F
ROGERS CITY    CLOUDY    46  45  93 S5        29.75R
TRAVERSE CITY  CLOUDY    51  46  83 VRB5      29.73S
$$
MIZ007>008-015-201200-
EASTERN UPPER MICHIGAN

CITY           SKY/WX    TMP DP  RH WIND       PRES   REMARKS
KINROSS        CLOUDY    46  46 100 CALM      29.71S
MACKINAC ISLAN CLOUDY    51  49  95 W5        29.72S
NEWBERRY       CLOUDY    46  45  97 W8        29.72S
S. S. MARIE    CLOUDY    46  44  93 CALM      29.71S FOG
MUNISING         N/A     48  42  80 NW12      29.76R
$$
MIZ004>006-011>014-085-201200-
CENTRAL UPPER MICHIGAN

CITY           SKY/WX    TMP DP  RH WIND       PRES   REMARKS
MANISTIQUE     CLOUDY    46  44  92 NW10      29.74R
ESCANABA       CLOUDY    48  43  81 N7        29.76S
MENOMINEE      CLOUDY    46  41  81 NW6       29.76S
SAWYER-GWINN   CLOUDY    45  41  87 NW6       29.77S
$$
MIZ001>003-009>011-084-201200-
WESTERN UPPER MICHIGAN

CITY           SKY/WX    TMP DP  RH WIND       PRES   REMARKS
IRON MOUNTAIN  CLOUDY    46  43  89 NW8       29.78R
HOUGHTON       CLOUDY    45  41  86 NW10      29.80R
COPPER HARBOR    N/A     47  42  83 N16       29.78R
IRONWOOD       CLOUDY    46  43  87 NW5       29.83R
$$

ABBREVIATIONS USED IN REMARKS
   TC - TEMPERATURE IN CELSIUS
  WCI - WIND CHILL INDEX
   HX - HEAT INDEX
  VSB - VISIBILITY




USA.gov is the U.S. government's official web portal to all federal, state and local government web resources and services.